GFSSW_500_spd_021.txt.gz
Wind_Speed
25 29 33 37 39 39 40 40 42 43 48 51 53 52 66 64 63 60 57 49 48 49 52 53 48 48 50 49 46 46 48 49 43 37 36 31 29 31 41 47 44 43 43 42 42
25 25 26 29 32 36 40 42 42 43 45 47 48 50 55 67 71 68 58 57 56 55 52 53 51 53 56 54 54 53 55 49 44 37 36 34 33 30 35 40 45 45 42 46 42
28 30 31 32 33 35 36 38 38 39 42 44 47 48 50 55 61 69 68 67 64 64 64 59 55 58 62 59 58 57 55 48 49 41 39 44 48 41 42 45 44 51 43 47 46
28 30 31 33 35 36 39 40 42 43 45 45 46 47 47 49 54 59 63 72 64 65 68 62 63 67 66 60 55 58 59 58 53 50 47 48 48 51 44 48 53 51 41 47 45
32 34 35 37 39 40 41 42 42 44 45 47 48 48 49 49 47 52 54 61 68 72 72 71 69 71 71 68 66 65 62 58 58 55 58 57 57 61 60 57 55 53 46 49 50
33 34 36 37 39 42 44 46 48 49 50 50 50 48 49 49 50 51 50 51 56 64 67 66 78 72 70 73 71 62 65 69 65 61 58 60 63 64 61 63 54 56 50 53 48
36 38 39 41 43 44 45 46 49 52 54 54 55 55 53 49 51 54 55 55 54 56 58 62 62 76 75 73 71 67 67 72 71 69 68 50 63 59 61 59 49 50 56 56 55
39 41 43 44 45 46 48 49 50 51 52 54 57 59 56 56 58 56 55 57 59 57 58 59 60 61 67 66 65 65 62 65 54 53 57 47 60 49 49 49 49 49 45 48 49
43 46 48 49 52 54 56 56 57 57 58 58 59 59 57 58 62 62 64 60 60 61 62 63 63 61 64 63 63 60 57 53 53 53 53 47 55 49 40 47 46 48 50 46 42
43 45 48 51 54 55 58 60 62 63 62 63 62 61 62 63 62 65 66 67 65 64 62 63 65 65 66 65 61 53 55 59 52 51 49 49 47 42 42 48 48 47 48 47 41
48 51 54 56 57 59 62 65 65 66 64 67 68 66 66 65 65 66 66 69 69 70 67 66 69 63 52 54 52 57 60 58 50 47 41 47 46 44 49 44 43 41 46 49 43
54 56 58 61 65 68 71 74 75 73 70 69 70 70 71 69 70 66 67 68 69 71 72 75 70 46 55 51 57 55 55 50 48 48 37 45 48 45 46 46 43 43 42 48 43
58 63 66 70 74 75 73 70 72 73 78 67 68 68 70 71 70 68 70 69 69 71 74 76 55 59 57 58 57 53 52 47 44 43 38 43 50 42 43 43 43 36 39 46 38
64 68 72 71 68 54 52 50 52 52 66 59 64 60 61 62 64 69 69 70 70 72 68 73 63 66 63 61 55 51 46 46 47 48 45 35 46 41 42 38 38 41 40 35 28
68 69 60 48 41 39 42 45 44 44 42 28 30 34 33 41 46 53 61 63 67 69 68 65 67 71 71 57 56 47 41 44 46 47 40 42 47 40 38 37 33 30 31 29 27
66 51 40 35 29 32 40 35 29 18 14 12 15 13 16 15 18 35 46 56 57 60 67 67 64 67 67 66 61 50 46 47 46 43 46 40 49 38 29 34 23 25 26 23 25
48 37 31 30 33 35 17 12 9 8 8 14 22 23 18 20 20 22 35 35 33 45 61 66 68 69 66 70 65 60 54 46 46 48 43 39 44 34 26 30 27 25 20 25 29
35 31 32 35 32 24 10 11 10 6 13 16 27 29 32 21 19 22 27 27 20 28 34 54 65 68 65 68 69 67 62 59 54 46 40 39 42 28 23 23 15 11 17 19 20
35 31 29 40 30 17 10 6 8 13 19 13 8 8 2 14 19 23 24 24 32 33 39 40 56 59 69 70 72 69 63 48 39 25 29 23 24 25 20 15 12 13 14 16 16
32 32 34 35 34 21 11 8 13 20 21 13 5 11 9 15 14 16 16 30 29 33 29 32 43 52 53 70 69 57 53 48 50 46 31 22 20 12 17 18 15 14 15 17 16
32 32 33 38 36 30 15 15 17 18 15 11 8 7 10 13 9 15 21 23 28 34 33 39 42 48 55 56 69 68 52 58 45 38 32 24 20 25 23 28 18 11 15 14 15
33 34 33 35 36 32 21 15 13 13 17 13 9 6 7 10 11 7 10 18 24 25 36 34 48 36 45 39 62 62 51 55 57 47 32 24 21 24 22 25 20 16 15 12 12
32 32 32 34 35 34 32 21 18 18 15 11 8 8 7 7 12 11 15 15 12 18 31 37 49 44 50 46 48 46 51 50 50 36 33 24 22 20 28 23 21 22 14 13 14
34 34 38 37 35 34 33 29 22 16 15 10 7 6 6 5 6 8 13 14 16 22 17 35 50 54 27 44 38 46 49 46 51 42 33 31 18 25 25 27 23 21 18 17 15
34 34 34 34 34 32 31 29 28 19 18 13 7 8 8 9 9 9 8 10 9 17 11 29 41 59 25 50 49 47 47 46 50 39 33 31 23 24 21 30 27 25 21 18 17
35 34 35 35 32 30 30 28 27 21 14 10 9 9 11 10 10 15 13 12 7 8 15 19 40 51 38 48 51 48 45 43 45 44 33 23 29 22 23 26 29 28 24 21 18
34 35 33 33 36 36 30 29 27 25 15 12 10 9 9 12 12 13 17 14 12 5 13 22 38 52 32 40 44 41 48 44 41 43 34 27 32 38 20 35 34 38 29 23 19

GFSSW_500_spd_024.txt.gz
Wind_Speed
27 29 31 32 35 38 41 43 44 45 49 51 51 65 61 57 54 54 52 50 54 53 54 52 56 54 54 55 46 47 53 55 45 37 37 32 30 26 21 23 28 38 41 41 48
27 28 30 31 31 31 35 43 45 47 47 48 48 50 60 65 67 65 58 58 58 57 59 51 52 52 54 53 52 51 53 50 45 39 42 42 37 26 31 30 26 26 28 31 39
28 29 31 32 34 35 36 34 37 45 49 50 50 50 51 54 59 67 65 67 67 62 56 59 54 52 54 54 55 55 55 51 47 45 44 47 49 35 32 36 33 41 36 40 51
31 32 34 35 35 36 37 39 40 41 42 43 45 47 49 49 52 56 58 60 71 67 62 63 65 62 61 57 54 59 60 56 52 50 50 50 49 45 40 38 41 44 43 42 52
36 37 38 40 41 42 42 43 43 44 45 46 47 48 49 49 47 53 53 54 57 70 75 67 65 63 67 63 62 65 63 58 55 54 51 51 55 59 59 55 53 54 53 57 58
35 36 37 38 40 42 44 45 47 48 49 50 50 49 50 50 52 54 56 53 52 53 58 70 75 70 69 68 67 61 63 63 62 64 61 54 57 58 55 53 54 53 58 53 54
37 39 41 42 43 44 45 47 49 50 51 52 53 55 54 49 53 54 57 55 56 55 57 58 64 73 72 73 70 71 72 73 65 64 66 58 64 60 55 57 55 49 50 50 50
38 40 42 44 46 48 51 52 53 52 53 54 55 56 55 57 58 57 57 56 56 58 57 57 58 62 70 73 70 68 69 70 61 59 49 50 58 47 41 44 48 46 47 47 44
38 40 43 46 48 51 53 56 58 59 60 60 60 58 57 56 58 59 62 60 60 59 57 60 63 61 62 65 66 67 68 59 47 44 50 47 48 36 38 37 42 42 43 40 40
44 47 49 52 53 54 57 60 62 62 63 63 65 63 63 62 61 61 62 63 63 64 63 62 65 67 65 64 64 56 51 41 49 43 46 41 44 32 40 39 36 37 39 36 43
46 49 52 55 58 62 64 66 67 66 65 66 68 65 66 67 66 65 64 63 66 67 68 69 71 64 51 58 52 53 50 54 53 46 46 41 43 36 40 39 38 43 38 36 40
50 52 53 56 62 66 70 74 76 74 71 69 71 68 68 66 69 69 68 67 67 66 67 75 71 48 59 54 55 59 60 57 49 48 45 36 41 42 39 38 40 38 38 36 38
54 57 62 68 74 76 74 71 66 69 75 69 67 72 64 67 65 65 67 69 69 68 68 70 55 60 59 59 62 57 56 51 48 46 44 35 44 39 35 39 40 39 41 36 38
59 63 67 68 64 50 44 43 44 44 50 44 46 48 46 52 60 61 63 63 66 66 66 67 59 62 64 63 62 59 52 51 48 47 52 39 49 34 33 35 36 38 33 33 32
60 61 60 50 40 40 39 36 35 31 10 8 9 9 12 24 32 41 50 56 61 64 62 60 61 63 68 57 61 53 46 48 45 46 43 47 45 19 31 32 36 35 27 28 28
56 55 46 42 42 42 29 18 12 8 4 9 15 14 8 9 12 17 32 30 43 54 61 63 60 65 62 62 64 56 52 47 44 40 43 34 39 24 25 34 29 26 27 33 29
54 47 41 43 42 36 17 7 10 13 11 16 20 18 15 7 8 14 14 15 27 28 47 62 65 67 62 64 64 63 57 51 48 48 44 25 38 29 26 29 25 21 26 29 27
47 43 39 38 39 35 17 15 11 15 15 14 27 28 24 19 15 21 18 23 21 23 33 44 58 64 66 65 62 64 64 62 59 53 46 39 41 31 29 23 17 22 23 19 23
42 37 38 40 37 33 22 16 18 22 23 18 11 2 7 12 17 29 23 24 20 30 34 37 40 55 61 65 57 51 60 56 51 40 41 33 28 28 26 12 15 18 12 13 9
37 36 37 37 35 30 28 22 17 20 24 22 14 14 6 13 14 16 20 27 28 35 29 40 38 51 62 58 67 50 48 57 52 46 37 32 19 13 24 18 17 14 16 13 12
39 37 35 35 35 32 29 26 18 19 19 17 12 19 12 13 16 20 18 16 25 30 33 41 43 34 53 59 60 61 54 57 49 48 46 31 15 18 27 26 20 20 15 13 16
40 39 36 37 33 33 30 27 24 21 14 14 12 9 9 13 11 14 14 12 17 19 23 36 38 37 44 42 44 55 58 58 60 53 44 31 22 27 24 17 20 22 21 17 16
39 40 37 36 31 30 28 26 26 19 15 14 10 13 12 3 8 9 15 15 11 15 14 31 34 31 36 46 51 54 55 56 56 41 43 33 24 27 26 21 22 21 25 17 14
40 41 41 41 39 38 30 26 27 24 20 12 10 5 8 13 5 12 16 18 15 13 16 26 35 35 31 38 47 41 44 50 39 50 38 31 21 27 23 26 24 29 21 18 17
40 41 42 40 36 33 35 31 26 24 20 14 8 11 13 15 9 16 18 14 11 3 8 18 29 42 44 35 50 44 48 46 46 45 43 33 30 13 24 25 32 22 23 22 14
39 40 40 40 36 30 31 28 26 23 23 12 9 10 12 16 17 19 17 15 11 9 11 11 20 37 43 37 51 51 55 52 42 38 37 30 34 23 29 30 20 25 23 19 19
36 39 41 41 37 32 31 27 25 24 20 13 10 12 16 17 18 18 18 16 11 6 11 14 17 24 39 25 26 54 58 52 46 36 40 28 35 33 23 21 25 27 25 23 21

GFSSW_500_spd_030.txt.gz
Wind_Speed
19 21 23 26 29 31 32 34 36 36 37 39 38 44 54 51 64 59 52 46 50 48 50 47 45 43 45 47 47 50 57 50 45 41 39 30 39 40 38 34 33 33 33 36 36
23 25 26 28 29 29 30 32 36 38 40 40 41 42 42 45 52 64 60 56 53 56 54 53 57 53 51 50 53 56 58 55 44 43 47 36 42 31 29 35 29 42 35 36 35
25 26 27 29 30 32 33 35 36 37 38 39 41 45 45 46 46 49 67 66 60 58 54 56 60 66 66 58 57 57 62 53 50 48 49 48 47 48 45 43 32 38 40 36 30
28 30 31 33 35 37 38 39 40 40 39 41 43 43 44 49 51 53 50 71 66 65 63 59 62 65 68 64 63 65 61 59 56 57 54 53 48 46 48 41 38 36 42 38 35
28 29 30 31 33 35 38 40 41 43 44 45 45 45 46 45 44 58 60 58 69 72 67 70 72 70 68 65 61 61 56 62 60 58 60 56 55 51 49 45 41 40 41 43 44
25 27 28 30 31 33 35 37 40 42 45 47 48 49 48 47 53 53 57 62 64 66 67 69 72 73 76 71 68 64 70 66 68 66 61 60 59 56 52 44 43 44 43 43 49
24 25 26 28 30 33 36 39 41 42 43 46 47 50 50 52 55 55 57 57 59 62 64 64 65 66 71 78 77 74 75 77 72 68 64 60 59 56 43 42 40 42 45 49 47
25 27 29 32 36 39 40 42 43 45 47 49 50 50 50 57 57 57 56 57 59 60 59 60 62 63 64 66 67 68 69 68 61 63 62 59 57 44 42 46 44 43 46 44 41
28 30 32 34 37 41 45 48 50 51 53 55 58 57 57 58 59 60 60 60 61 61 63 65 66 63 62 62 62 62 64 62 54 52 61 64 50 45 45 43 42 41 39 39 36
31 33 36 38 41 44 47 48 53 55 61 65 65 62 66 67 64 63 63 64 64 64 65 67 68 66 64 63 63 59 56 55 54 49 49 53 51 44 41 40 41 38 30 32 30
34 36 38 42 45 47 51 55 59 65 70 74 74 75 72 70 71 69 69 66 67 68 68 69 70 64 55 57 59 59 59 56 52 49 48 44 46 42 37 37 37 33 30 30 32
34 37 40 43 45 48 51 58 65 69 70 66 69 64 75 68 70 72 73 70 70 70 72 72 64 56 60 66 62 59 58 53 54 53 49 47 45 45 37 35 35 29 30 33 26
35 37 41 43 46 51 57 62 64 52 41 20 15 16 25 49 52 55 61 67 69 71 72 70 61 62 64 64 64 62 60 54 54 51 48 51 48 41 34 32 30 31 29 30 25
35 38 40 43 45 50 55 51 47 37 15 25 16 12 15 17 21 36 53 60 63 66 66 68 62 65 67 65 65 63 60 58 56 53 51 47 49 41 30 30 32 29 30 25 17
36 38 40 43 46 49 49 45 40 38 33 29 27 22 19 9 5 14 27 43 48 53 60 58 64 64 65 64 65 59 60 61 61 57 55 51 49 25 31 30 26 28 27 16 16
37 38 41 44 46 48 45 42 37 34 32 31 29 30 18 14 13 17 18 16 29 40 54 56 57 60 61 61 63 60 62 64 61 58 61 46 46 24 24 20 22 21 17 16 15
37 37 40 44 45 47 44 38 33 30 29 32 29 26 26 19 15 16 27 19 17 16 31 45 46 53 56 60 61 62 63 62 62 65 53 46 46 20 15 16 26 21 18 14 15
36 38 39 43 46 45 42 36 30 30 30 28 20 22 23 23 13 16 24 24 9 16 22 24 31 48 51 56 59 61 60 61 61 60 53 52 50 32 16 23 14 18 17 12 14
34 37 37 39 43 44 42 35 32 30 27 29 29 16 16 16 20 13 20 14 17 16 20 22 25 34 42 50 58 56 62 57 61 59 58 52 47 40 25 26 8 12 8 5 9
31 36 37 38 40 45 40 32 30 28 28 25 24 17 12 7 12 13 11 14 18 23 24 26 26 23 26 45 55 55 55 56 60 59 59 52 48 41 28 28 21 18 9 10 15
33 33 35 36 40 42 40 32 26 27 29 26 24 16 11 9 7 12 11 10 9 23 24 20 19 26 33 35 46 53 55 56 59 60 56 51 49 42 25 23 19 19 8 10 7
37 33 34 37 38 41 40 36 27 26 27 24 20 13 10 10 8 10 11 14 17 16 17 21 21 20 25 42 42 49 57 59 61 60 56 52 48 30 34 30 24 17 10 8 2
36 35 34 37 39 38 39 32 31 23 24 17 15 13 10 12 12 11 4 10 15 15 12 12 19 15 12 38 45 49 56 61 60 60 57 53 37 32 28 26 19 16 13 5 7
39 33 32 33 38 39 42 33 25 22 21 13 12 11 8 9 15 15 16 12 12 11 11 13 14 16 11 28 48 47 54 62 60 61 55 54 36 40 30 28 26 19 13 10 9
39 33 33 31 31 34 38 39 29 16 17 18 11 12 8 10 16 21 27 26 18 19 20 14 8 6 7 24 44 46 49 65 65 61 60 55 45 41 35 28 18 15 15 11 10
40 33 30 28 31 33 36 38 35 18 16 15 15 16 16 17 19 15 22 25 22 17 13 12 4 11 5 13 36 48 43 61 66 62 62 57 52 39 29 33 24 20 17 14 16
38 36 34 30 29 30 34 38 36 18 17 17 17 18 20 22 25 19 15 10 15 12 11 12 12 8 6 6 23 43 40 56 64 61 61 59 54 35 35 37 33 28 26 17 16

GFSSW_500_spd_033.txt.gz
Wind_Speed
17 18 20 22 25 29 32 33 34 35 35 37 37 38 38 43 56 56 54 57 54 48 48 48 48 49 50 48 48 49 52 50 43 39 36 42 42 41 45 48 42 40 41 39 40
18 19 21 23 24 26 27 30 33 35 37 40 41 42 42 42 42 48 63 64 66 58 53 52 53 54 54 50 52 53 56 52 44 43 44 46 44 40 44 42 37 36 38 42 34
20 22 23 25 26 28 28 29 31 33 36 37 39 42 46 46 46 48 48 63 67 67 65 54 54 59 58 53 54 58 61 51 50 47 44 48 51 45 43 39 29 34 39 37 37
22 23 24 25 27 28 30 31 33 34 36 39 40 41 42 42 47 51 54 54 57 58 72 64 59 62 63 59 57 60 60 58 48 49 49 47 50 56 51 47 44 35 43 39 40
24 23 24 25 26 27 29 31 33 35 38 40 41 42 44 45 47 52 52 55 60 59 63 72 74 67 66 62 61 63 61 66 63 59 58 56 58 55 56 55 51 52 47 41 40
25 25 26 27 28 30 32 34 35 35 37 40 42 44 46 46 52 53 55 55 55 60 65 67 66 77 71 69 65 65 66 67 68 63 60 60 59 55 54 47 53 49 46 45 43
20 22 24 26 28 30 32 34 36 37 39 41 43 44 44 50 53 55 56 57 59 58 58 64 64 69 76 74 73 71 73 71 68 68 67 62 60 59 54 53 47 47 47 43 41
20 23 24 27 30 32 35 38 39 41 44 47 47 47 50 51 53 56 58 60 61 61 61 61 63 67 68 74 76 74 72 72 64 69 67 68 62 55 56 55 49 45 43 43 43
25 27 28 30 33 35 38 40 43 45 46 49 51 53 59 61 60 59 59 62 64 64 62 66 65 64 66 69 71 73 72 70 66 68 74 76 60 53 48 51 48 49 49 46 46
26 27 29 31 33 37 39 41 45 48 50 53 56 59 63 65 68 69 69 66 66 67 68 69 68 67 66 65 70 69 68 66 67 62 62 64 58 51 44 47 48 50 48 48 44
26 28 31 34 36 38 41 43 47 51 57 59 62 68 71 75 78 75 76 73 72 72 72 72 73 65 60 60 63 61 63 63 60 58 55 57 55 51 48 46 44 42 43 44 39
28 30 32 35 37 39 41 45 50 53 59 65 71 71 67 66 69 67 74 75 75 75 77 77 71 64 65 68 65 64 63 61 58 58 58 53 54 50 46 44 38 36 38 37 35
28 29 32 35 37 40 43 47 52 57 60 64 54 47 39 36 38 34 48 64 67 73 73 76 69 69 70 70 67 66 65 60 59 57 56 54 57 48 43 42 39 38 35 32 31
28 29 32 35 37 41 44 48 52 56 57 55 41 36 31 34 22 26 25 41 50 58 63 70 68 71 71 71 68 67 64 61 61 59 57 53 57 48 37 37 37 37 33 30 29
28 31 33 36 38 41 43 47 52 54 51 41 37 36 33 28 22 19 18 20 26 43 51 59 67 71 72 66 68 64 65 62 63 61 59 55 56 37 36 35 31 28 29 27 28
33 33 36 38 39 41 43 47 51 51 43 35 32 33 33 21 22 23 19 18 17 21 31 50 52 58 63 65 66 64 66 62 62 63 65 53 54 28 29 31 27 31 34 31 27
34 35 37 38 39 42 44 47 49 44 37 32 33 30 30 24 15 20 20 21 16 18 18 33 43 51 57 60 60 64 65 64 65 65 56 51 54 28 18 30 26 31 29 19 18
33 36 35 35 38 40 41 44 50 41 30 29 32 26 22 20 12 13 20 17 19 13 9 20 24 38 46 54 55 61 64 64 66 63 54 49 51 36 26 20 24 22 19 18 23
35 35 34 32 34 37 39 45 48 37 29 31 26 22 19 18 15 9 14 14 21 18 13 8 15 20 23 40 49 54 58 55 56 59 57 51 45 42 31 26 24 14 16 19 18
35 37 34 32 32 35 38 42 41 34 28 30 27 21 17 11 9 9 9 13 16 17 14 12 16 16 22 27 44 49 53 54 57 56 57 53 48 43 34 24 19 22 22 19 19
34 37 35 30 28 32 37 39 38 32 29 31 26 23 17 10 10 8 8 12 10 13 13 16 19 21 22 23 34 45 50 54 55 55 55 52 49 46 36 27 30 24 24 19 19
37 38 36 32 28 30 35 41 40 28 26 26 22 22 19 14 9 12 9 3 8 13 12 10 16 18 18 30 33 37 48 53 57 57 55 55 53 49 40 32 33 25 19 16 17
36 39 39 36 30 28 30 37 39 30 21 22 18 18 17 16 12 11 8 9 5 9 17 15 13 17 14 24 34 40 44 53 59 60 59 59 55 43 31 41 32 26 24 21 17
36 38 40 38 33 32 31 33 33 28 19 18 20 18 19 17 19 18 15 18 14 13 10 17 16 21 17 19 28 40 45 49 60 61 57 54 55 34 40 36 34 33 30 27 15
37 37 40 39 32 31 30 33 35 29 19 17 13 18 20 19 18 23 20 20 22 21 20 17 17 19 17 20 24 33 47 46 61 64 61 53 56 40 47 38 41 36 34 26 15
37 35 38 39 34 30 30 32 34 29 21 18 14 15 21 22 23 19 14 19 22 21 21 19 14 18 15 16 24 28 40 52 59 64 62 56 46 51 48 47 42 38 33 26 15
36 35 36 37 32 27 27 31 33 33 25 20 17 17 18 22 23 18 17 9 9 12 16 16 18 19 11 15 19 21 29 46 54 62 63 60 51 56 54 49 39 39 34 24 16